Change the Weather History Date:

Sunday, October 21, 2012

  Actual Average Record
Temperature  
Mean Temperature 84 °F -  
Max Temperature 94 °F 90 °F 100 °F (2003)
Min Temperature 73 °F 73 °F 73 °F (2004)
Cooling Degree Days 18    
Growing Degree Days 34 (Base 50)    
Moisture  
Dew Point 64 °F    
Average Humidity 48    
Maximum Humidity 72    
Minimum Humidity 32    
Precipitation  
Precipitation 0.00 in - - ()
Sea Level Pressure  
Sea Level Pressure 29.86 in    
Wind  
Wind Speed 5 mph ()    
Max Wind Speed 12 mph    
Max Gust Speed -    
Visibility 1.9 miles    
Events      
Averages and records for this station are not official NWS values.
T = Trace of Precipitation, MM = Missing Value Source: Averaged Metar Reports

Daily Weather History Graph

Daily Weather History Graph

Search for Another Location

Airport or City:

Trip Planner

Search our weather history database for the weather conditions in past years. The results will help you decide how hot, cold, wet, or windy it might be!

Date:

Astronomy

Oct. 21, 2012 Rise Set
Actual Time 6:34 AM IST 6:11 PM IST
Civil Twilight 6:12 AM IST 6:33 PM IST
Nautical Twilight 5:46 AM IST 6:59 PM IST
Astronomical Twilight 5:21 AM IST 7:24 PM IST
Moon 12:17 PM IST (10/21) 11:50 PM IST (10/21)
Length of Visible Light 12h 21m
Length of Day
11h 36m
Waxing Crescent, 40% of the Moon is Illuminated
Oct 21
Waxing Crescent
Oct 22
First Quarter
Oct 30
Full
Nov 7
Last Quarter
Nov 14
New

Hourly Weather History & Observations

Time (IST) Temp. Heat Index Dew Point Humidity Pressure Visibility Wind Dir Wind Speed Gust Speed Precip Events Conditions
12:10 AM 80.6 °F 82.3 °F 64.4 °F 58% 29.86 in 1.6 mi ESE 6.9 mph - N/A   Smoke
12:40 AM 82.4 °F 83.9 °F 64.4 °F 54% 29.86 in 1.7 mi NNE 4.6 mph - N/A   Smoke
1:10 AM 82.4 °F 83.9 °F 64.4 °F 54% 29.83 in 1.7 mi Calm Calm - N/A   Smoke
1:40 AM 80.6 °F 82.3 °F 64.4 °F 58% 29.83 in 1.7 mi Calm Calm - N/A   Smoke
2:30 AM 76 °F - 68 °F 69% 29.84 in 1 mi Calm Calm - -   Haze
2:40 AM 82.4 °F 83.4 °F 62.6 °F 51% 29.83 in 1.9 mi NNE 4.6 mph - N/A   Smoke
3:10 AM 82.4 °F 83.4 °F 62.6 °F 51% 29.83 in 1.9 mi NE 4.6 mph - N/A   Smoke
3:40 AM 82.4 °F 83.9 °F 64.4 °F 54% 29.83 in 1.9 mi Calm Calm - N/A   Smoke
4:10 AM 82.4 °F 83.4 °F 62.6 °F 51% 29.83 in 1.9 mi Calm Calm - N/A   Smoke
4:40 AM 80.6 °F 82.3 °F 64.4 °F 58% 29.83 in 2.2 mi SSE 3.5 mph - N/A   Smoke
5:10 AM 80.6 °F 82.3 °F 64.4 °F 58% 29.86 in - Calm Calm - N/A   Smoke
5:30 AM 75 °F - 68 °F 72% 29.86 in 1 mi Calm Calm - -   Haze
5:40 AM 80.6 °F 82.3 °F 64.4 °F 58% 29.86 in 2.2 mi Calm Calm - N/A   Smoke
6:10 AM 82.4 °F 83.9 °F 64.4 °F 54% 29.86 in - NE 3.5 mph - N/A   Smoke
6:40 AM 82.4 °F 83.4 °F 62.6 °F 51% 29.89 in - ENE 3.5 mph - N/A   Smoke
7:10 AM 82.4 °F 83.9 °F 64.4 °F 54% 29.89 in - Calm Calm - N/A   Smoke
8:10 AM 82.4 °F 83.9 °F 64.4 °F 54% 29.92 in 1.5 mi NNE 4.6 mph - N/A   Smoke
8:30 AM 79 °F - 67 °F 58% 29.93 in 1 mi NE 3.5 mph - -   Smoke
8:40 AM 82.4 °F 83.9 °F 64.4 °F 54% 29.92 in 1.5 mi NNE 3.5 mph - N/A   Smoke
9:10 AM 84.2 °F 86.6 °F 66.2 °F 55% 29.92 in 1.6 mi East 6.9 mph - N/A   Smoke
9:40 AM 84.2 °F 86.6 °F 66.2 °F 55% 29.95 in 1.6 mi ESE 4.6 mph - N/A   Smoke
10:10 AM 86.0 °F 89.4 °F 68.0 °F 55% 29.95 in 1.6 mi East 8.1 mph - N/A   Smoke
10:40 AM 87.8 °F 91.4 °F 68.0 °F 52% 29.92 in 1.6 mi ESE 6.9 mph - N/A   Smoke
11:30 AM 90 °F - 69 °F 40% 29.91 in 1 mi SE 3.5 mph - -   Smoke
11:40 AM 89.6 °F 93.4 °F 68.0 °F 49% 29.92 in 1.9 mi SE 10.4 mph - N/A   Smoke
12:10 PM 91.4 °F 95.4 °F 68.0 °F 46% 29.89 in 1.9 mi East 4.6 mph - N/A   Smoke
12:40 PM 93.2 °F 97.7 °F 68.0 °F 44% 29.86 in - ESE 8.1 mph - N/A   Smoke
1:10 PM 93.2 °F 94.9 °F 64.4 °F 38% 29.86 in 2.5 mi ESE 9.2 mph - N/A   Smoke
1:40 PM 93.2 °F 94.9 °F 64.4 °F 38% 29.86 in 2.5 mi East 9.2 mph - N/A   Smoke
2:10 PM 93.2 °F 94.9 °F 64.4 °F 38% 29.83 in 2.5 mi NE 11.5 mph - N/A   Smoke
2:30 PM 92 °F - 65 °F 32% 29.83 in 1 mi East 4.6 mph - -   Smoke
2:40 PM 91.4 °F 93.2 °F 64.4 °F 41% 29.83 in 2.5 mi NE 9.2 mph - N/A   Smoke
3:40 PM 91.4 °F 91.4 °F 60.8 °F 36% 29.80 in 3.1 mi NE 10.4 mph - N/A   Smoke
4:10 PM 91.4 °F 92.1 °F 62.6 °F 38% 29.80 in 3.1 mi East 11.5 mph - N/A   Smoke
4:40 PM 91.4 °F 93.2 °F 64.4 °F 41% 29.83 in 2.8 mi ENE 9.2 mph - N/A   Smoke
5:10 PM 91.4 °F 93.2 °F 64.4 °F 41% 29.83 in 2.5 mi NE 10.4 mph - N/A   Smoke
5:30 PM 89 °F - 65 °F 35% 29.82 in 1 mi NE 4.6 mph - -   Smoke
5:40 PM 91.4 °F 93.2 °F 64.4 °F 41% 29.83 in 2.2 mi NE 8.1 mph - N/A   Smoke
6:10 PM 89.6 °F 91.1 °F 64.4 °F 43% 29.83 in 2.2 mi NNE 9.2 mph - N/A   Smoke
7:10 PM 87.8 °F 88.5 °F 62.6 °F 43% 29.83 in 1.9 mi NNE 11.5 mph - N/A   Smoke
7:40 PM 87.8 °F 87.6 °F 60.8 °F 40% 29.86 in 1.9 mi NE 9.2 mph - N/A   Smoke
8:10 PM 87.8 °F 88.5 °F 62.6 °F 43% 29.86 in 2.2 mi NE 9.2 mph - N/A   Smoke
8:30 PM 85 °F - 64 °F 39% 29.87 in 1 mi NE 3.5 mph - -   Smoke
8:40 PM 87.8 °F 88.5 °F 62.6 °F 43% 29.89 in 2.2 mi NE 8.1 mph - N/A   Smoke
9:40 PM 87.8 °F 87.6 °F 60.8 °F 40% 29.89 in 1.9 mi ENE 8.1 mph - N/A   Smoke
10:10 PM 87.8 °F 87.6 °F 60.8 °F 40% 29.89 in 1.9 mi ENE 9.2 mph - N/A   Smoke
10:40 PM 87.8 °F 87.6 °F 60.8 °F 40% 29.86 in 1.9 mi ENE 11.5 mph - N/A   Smoke
11:10 PM 86.0 °F 86.1 °F 60.8 °F 43% 29.86 in 1.9 mi East 10.4 mph - N/A   Smoke
11:30 PM 84 °F - 62 °F 38% 29.86 in 1 mi East 3.5 mph - -   Smoke
11:40 PM 86.0 °F 86.1 °F 60.8 °F 43% 29.86 in 1.9 mi East 8.1 mph - N/A   Smoke